GWO459 Weather Reports


time (UTC)temp
C
wind
direction
speed
KPH
gust
KPH
rain 1hr
cm
rain 24hr
cm
rain mn
cm
humidity
%
barometer
mb
20260509235403 18 253 11.3 35.4 0.00 0.08 0.05 72 1000.9
20260509234503 17 259 11.3 30.6 0.00 0.08 0.05 76 1000.9
20260509233603 17 263 11.3 22.5 0.00 0.08 0.05 77 1001.0
20260509232703 17 248 8.0 22.5 0.00 0.08 0.05 77 1001.3
20260509231803 17 245 9.7 17.7 0.00 0.08 0.05 79 1001.3
20260509230903 16 238 9.7 29.0 0.00 0.08 0.05 80 1001.4
20260509230003 16 246 9.7 20.9 0.00 0.08 0.05 79 1001.6
20260509225403 16 261 9.7 22.5 0.00 0.08 0.05 79 1001.6
20260509224503 16 252 9.7 27.4 0.00 0.08 0.05 80 1001.6
20260509223603 15 258 6.4 22.5 0.00 0.08 0.05 81 1001.6
20260509222703 15 250 8.0 16.1 0.00 0.08 0.05 81 1001.5
20260509222017 15 261 11.3 22.5 0.00 0.08 0.05 81 1001.5
20260509220903 15 264 9.7 24.1 0.00 0.08 0.05 81 1001.5
20260509220003 15 255 6.4 24.1 0.00 0.08 0.05 83 1001.5
20260509215618 15 249 6.4 24.1 0.00 0.08 0.05 82 1001.5
20260509214504 15 257 4.8 17.7 0.00 0.08 0.05 85 1001.5
20260509213603 14 251 3.2 12.9 0.00 0.08 0.05 89 1001.5
20260509212703 13 269 1.6 8.0 0.00 0.08 0.05 91 1001.5
20260509211803 13 252 1.6 9.7 0.00 0.08 0.05 92 1001.6
20260509210903 13 250 1.6 8.0 0.00 0.08 0.05 93 1001.8
20260509210004 13 255 1.6 9.7 0.00 0.08 0.05 94 1001.8
20260509205617 12 255 1.6 9.7 0.00 0.08 0.05 94 1001.8
20260509204503 12 231 0.0 6.4 0.00 0.08 0.05 95 1001.9
20260509203818 12 245 0.0 6.4 0.00 0.08 0.05 95 1001.8
20260509202703 11 244 1.6 8.0 0.00 0.08 0.05 95 1001.7
20260509202017 10 0 0.0 6.4 0.00 0.08 0.05 94 1001.6
20260509200903 10 0 0.0 0.0 0.00 0.08 0.05 94 1001.7
20260509200004 10 0 0.0 0.0 0.00 0.08 0.05 94 1001.7
20260509195403 10 0 0.0 0.0 0.00 0.08 0.05 94 1001.7
20260509194503 10 0 0.0 0.0 0.00 0.08 0.05 94 1001.5
20260509193818 10 0 0.0 1.6 0.00 0.08 0.05 94 1001.5
20260509192917 10 0 0.0 0.0 0.00 0.08 0.05 94 1001.5
20260509191803 10 0 0.0 6.4 0.00 0.08 0.05 94 1001.4
20260509190903 9 0 0.0 3.2 0.00 0.08 0.05 93 1001.4
20260509190217 8 0 0.0 3.2 0.00 0.08 0.05 93 1001.4
20260509185403 8 0 0.0 0.0 0.00 0.08 0.05 92 1001.4
20260509184503 8 0 0.0 0.0 0.00 0.08 0.05 92 1001.5
20260509183603 8 0 0.0 0.0 0.00 0.08 0.05 92 1001.5
20260509182703 8 0 0.0 0.0 0.00 0.08 0.05 92 1001.5
20260509181803 8 0 0.0 0.0 0.00 0.08 0.05 92 1001.4
20260509180903 8 0 0.0 0.0 0.00 0.08 0.05 92 1001.4
20260509180216 8 0 0.0 0.0 0.00 0.08 0.05 92 1001.4
20260509175403 8 0 0.0 0.0 0.00 0.08 0.05 92 1001.2
20260509174717 8 0 0.0 0.0 0.00 0.08 0.05 92 1001.2
20260509173603 9 0 0.0 0.0 0.03 0.08 0.05 92 1001.1
20260509172918 9 0 0.0 0.0 0.03 0.08 0.05 92 1001.2
20260509172017 9 0 0.0 0.0 0.03 0.08 0.05 92 1001.1
20260509170903 10 0 0.0 0.0 0.03 0.08 0.05 92 1000.9
20260509170003 10 0 0.0 0.0 0.03 0.08 0.05 92 1001.0
20260509165403 10 0 0.0 1.6 0.03 0.08 0.05 92 1001.0
20260509164503 10 0 0.0 0.0 0.03 0.08 0.05 92 1001.1
20260509163603 10 0 0.0 1.6 0.00 0.08 0.05 91 1001.0
20260509162703 10 0 0.0 1.6 0.00 0.08 0.05 91 1001.0
20260509161854 10 0 0.0 1.6 0.00 0.08 0.05 91 1001.0
20260509160903 10 0 0.0 0.0 0.00 0.08 0.05 91 1001.0
20260509160003 10 0 0.0 1.6 0.00 0.08 0.05 91 1001.0
20260509155403 10 0 0.0 3.2 0.00 0.08 0.05 91 1001.1
20260509154503 11 0 0.0 3.2 0.00 0.08 0.05 91 1001.1
20260509153603 11 0 0.0 1.6 0.00 0.08 0.05 91 1001.3
20260509152703 11 0 0.0 1.6 0.00 0.10 0.05 91 1001.2
20260509151803 11 0 0.0 0.0 0.00 0.10 0.05 91 1001.3
20260509150903 11 0 0.0 0.0 0.00 0.13 0.05 91 1001.2
20260509150003 12 0 0.0 0.0 0.00 0.18 0.05 91 1001.3
20260509145403 12 0 0.0 1.6 0.00 0.18 0.05 91 1001.4
20260509144503 12 0 0.0 4.8 0.00 0.18 0.05 91 1001.4
20260509143818 12 0 0.0 4.8 0.00 0.18 0.05 91 1001.3
20260509142703 12 312 0.0 3.2 0.00 0.20 0.05 92 1001.2
20260509141803 12 0 0.0 4.8 0.00 0.23 0.05 92 1001.3
20260509140903 12 313 0.0 4.8 0.00 0.43 0.05 92 1001.4
20260509140004 12 321 0.0 4.8 0.00 0.74 0.05 92 1001.5
20260509135403 12 0 0.0 4.8 0.00 0.76 0.05 92 1001.5
20260509134503 12 0 0.0 1.6 0.03 0.79 0.05 92 1001.5
20260509133603 13 0 0.0 1.6 0.05 0.79 0.05 92 1001.5
20260509132917 13 0 0.0 3.2 0.05 0.79 0.05 92 1001.4
20260509131803 13 0 0.0 3.2 0.05 0.79 0.05 92 1001.3
20260509130903 13 327 0.0 3.2 0.05 0.79 0.05 93 1001.5
20260509130004 13 322 1.6 4.8 0.05 0.79 0.05 93 1001.7
20260509125403 13 255 3.2 8.0 0.05 0.79 0.05 93 1001.8
20260509124503 13 224 0.0 8.0 0.03 0.76 0.03 92 1002.0
20260509123603 12 0 0.0 1.6 0.00 0.74 0.00 92 1001.8
20260509122703 12 195 0.0 3.2 0.00 0.74 0.00 91 1001.8
20260509121803 12 199 0.0 8.0 0.00 0.74 0.00 91 1001.8
20260509120903 12 0 4.8 4.8 0.00 0.74 0.00 91 1001.8
20260509120218 12 0 1.6 1.6 0.00 0.74 0.00 91 1001.8
20260509115403 12 0 1.6 1.6 0.00 0.74 0.74 90 1001.8
20260509114503 13 0 4.8 4.8 0.00 0.74 0.74 90 1001.7
20260509113603 13 0 3.2 3.2 0.00 0.74 0.74 90 1001.6
20260509112703 13 0 0.0 0.0 0.00 0.74 0.74 90 1001.7
20260509111803 13 0 1.6 1.6 0.00 0.74 0.74 90 1001.6
20260509110903 13 0 1.6 1.6 0.00 0.74 0.74 90 1001.7
20260509110218 13 0 0.0 0.0 0.00 0.74 0.74 90 1001.7
20260509105403 14 0 3.2 3.2 0.00 0.74 0.74 90 1001.7
20260509104503 14 0 0.0 0.0 0.00 0.76 0.74 90 1001.8
20260509103818 14 0 0.0 0.0 0.00 0.76 0.74 90 1002.0
20260509102918 14 0 1.6 1.6 0.00 0.76 0.74 90 1002.1
20260509101803 14 0 1.6 1.6 0.00 0.76 0.74 90 1002.1
20260509100903 14 0 0.0 0.0 0.00 0.76 0.74 90 1002.3
20260509100004 14 0 1.6 1.6 0.03 0.76 0.74 90 1002.4
20260509095403 14 0 1.6 1.6 0.03 0.76 0.74 90 1002.6
20260509094503 14 0 0.0 0.0 0.03 0.76 0.74 90 1002.6
20260509093603 14 0 4.8 4.8 0.03 0.76 0.74 90 1002.5
20260509092703 14 0 3.2 3.2 0.03 0.76 0.74 90 1002.4
20260509091803 14 0 4.8 4.8 0.03 0.76 0.74 89 1002.5
20260509090903 14 0 0.0 1.6 0.03 0.76 0.74 89 1002.6
20260509090217 14 222 0.0 3.2 0.00 0.74 0.71 89 1002.7
20260509085403 14 228 1.6 6.4 0.00 0.74 0.71 89 1002.6
20260509084503 14 237 1.6 8.0 0.00 0.74 0.71 89 1002.4
20260509083603 14 260 0.0 6.4 0.00 0.74 0.71 88 1002.4
20260509082917 14 0 0.0 4.8 0.00 0.74 0.71 88 1002.2
20260509081803 14 0 0.0 0.0 0.00 0.74 0.71 87 1002.1
20260509080903 14 0 0.0 0.0 0.00 0.74 0.71 87 1002.1
20260509080003 14 0 0.0 0.0 0.00 0.74 0.71 87 1002.0
20260509075403 14 0 0.0 0.0 0.00 0.74 0.71 86 1002.0
20260509074503 14 0 0.0 1.6 0.00 0.74 0.71 86 1002.0
20260509073603 14 0 0.0 0.0 0.00 0.74 0.71 86 1002.0
20260509072703 14 0 0.0 0.0 0.00 0.74 0.71 86 1002.0
20260509071803 15 0 0.0 1.6 0.00 0.74 0.71 86 1002.0
20260509070903 15 0 0.0 0.0 0.00 0.74 0.71 85 1002.0
20260509070004 15 0 0.0 0.0 0.00 0.74 0.71 85 1002.1
20260509065403 15 0 0.0 1.6 0.00 0.76 0.71 85 1002.0
20260509064503 15 0 0.0 0.0 0.00 0.76 0.71 85 1001.8
20260509063817 15 0 0.0 0.0 0.00 0.79 0.71 84 1001.8
20260509062703 15 0 0.0 0.0 0.00 0.79 0.71 84 1001.6
20260509062017 15 0 0.0 0.0 0.00 0.79 0.71 83 1001.7
20260509060903 16 0 0.0 0.0 0.00 0.79 0.71 82 1001.8
20260509060004 16 0 0.0 0.0 0.00 0.79 0.71 83 1001.7
20260509055403 16 0 0.0 0.0 0.00 0.79 0.71 82 1001.6
20260509054504 16 0 0.0 0.0 0.00 0.79 0.71 80 1001.5
20260509053604 17 0 0.0 4.8 0.00 0.79 0.71 81 1001.5
20260509052703 17 0 0.0 0.0 0.00 0.79 0.71 80 1001.6
20260509051803 17 290 0.0 4.8 0.00 0.79 0.71 79 1001.6
20260509051118 17 291 0.0 4.8 0.00 0.79 0.71 79 1001.7
20260509050003 17 269 3.2 6.4 0.00 0.79 0.71 79 1001.7
20260509045403 17 253 3.2 9.7 0.00 0.79 0.71 78 1001.6
20260509044503 17 248 4.8 14.5 0.00 0.79 0.71 78 1001.7
20260509043603 18 260 4.8 14.5 0.00 0.79 0.71 77 1001.7
20260509042703 18 257 6.4 12.9 0.00 0.79 0.71 76 1001.6
20260509041803 18 259 6.4 17.7 0.00 0.79 0.71 75 1001.7
20260509040903 18 264 4.8 14.5 0.00 0.79 0.71 74 1001.7
20260509040003 18 266 4.8 12.9 0.00 0.79 0.71 74 1001.5
20260509035403 18 247 6.4 12.9 0.00 0.79 0.71 75 1001.5
20260509034503 18 253 6.4 14.5 0.00 0.79 0.71 74 1001.6
20260509033603 18 254 3.2 16.1 0.00 0.79 0.71 74 1001.8
20260509032917 18 277 3.2 6.4 0.00 0.79 0.71 74 1001.8
20260509031803 19 276 4.8 17.7 0.00 0.79 0.71 74 1001.8
20260509030903 20 270 4.8 12.9 0.00 0.79 0.71 71 1001.7
20260509030003 20 292 4.8 12.9 0.00 0.79 0.71 71 1001.8
20260509025617 20 313 4.8 12.9 0.00 0.79 0.71 70 1001.9
20260509024503 20 253 8.0 16.1 0.00 0.79 0.71 71 1002.0
20260509023603 20 254 6.4 17.7 0.00 0.79 0.71 68 1002.0
20260509022703 20 307 6.4 16.1 0.00 0.79 0.71 69 1002.0
20260509021803 20 308 8.0 17.7 0.00 0.79 0.71 69 1002.1
20260509020903 20 291 6.4 19.3 0.00 0.79 0.71 68 1002.2
20260509020003 20 317 6.4 16.1 0.00 0.79 0.71 71 1002.3
20260509015618 19 310 6.4 16.1 0.00 0.79 0.71 72 1002.3
20260509014503 20 263 6.4 16.1 0.00 0.79 0.71 70 1002.3
20260509013603 20 304 4.8 17.7 0.00 0.79 0.71 69 1002.5
20260509012703 20 271 6.4 16.1 0.00 0.79 0.71 74 1002.6
20260509011803 18 259 9.7 17.7 0.00 0.79 0.71 73 1002.7
20260509010903 18 260 11.3 22.5 0.00 0.79 0.71 75 1002.9
20260509010003 19 255 9.7 25.7 0.00 0.79 0.71 71 1003.1
20260509005618 20 251 9.7 24.1 0.00 0.81 0.71 70 1003.1
20260509004503 20 267 4.8 22.5 0.00 0.97 0.71 71 1002.9
20260509003603 20 291 6.4 14.5 0.00 0.99 0.71 75 1003.1
20260509002704 20 254 8.0 16.1 0.00 0.99 0.71 72 1003.4
20260509001803 20 262 4.8 17.7 0.00 0.99 0.71 73 1003.6
20260509000903 19 242 4.8 14.5 0.00 0.99 0.71 78 1003.7
20260509000003 18 238 8.0 12.9 0.00 0.99 0.71 79 1003.9